User: anonymous   Login
Location: Unspecified
(0.0000°N, 0.0000°E)
Time: 23:53:00
(UTC+00:00)
Language:

STARLINK-11397 [DTC] - Orbit

View from above orbital plane
View from above orbital plane
View from above satellite
View from above satellite

Ground track
Ground track

The orbit is defined by the following mean orbital elements,

1 62590U          26145.01636944 +.00000000 +00000-0 +14758-2 0 00003
2 62590  43.0036  25.6255 0002387 258.5596 101.5004 15.70894325    00
Epoch (UTC): 25 May 2026 00:23:34
Eccentricity: 0.0002387
inclination: 43.0036°
perigee height: 355 km
apogee height: 358 km
right ascension of ascending node: 25.6255°
argument of perigee: 258.5596°
revolutions per day: 15.70894325
mean anomaly at epoch: 101.5004°

The dashed part of the orbit path shows where the satellite is in the earth's shadow,  

DLR